Time,TemperatureF,DewpointF,PressureIn,WindDirection,WindDirectionDegrees,WindSpeedMPH,WindSpeedGustMPH,Humidity,HourlyPrecipIn,Conditions,Clouds,dailyrainin,SolarRadiationWatts/m^2,SoftwareType,DateUTC
2013-11-21 00:43:00,31.0,16.0,-100.00,North,352,4.0,7.0,54,0.00,,,-99.99,0.000000,,2013-11-21 05:43:00,
2013-11-21 01:43:00,31.0,17.0,-100.00,NNW,347,4.0,5.0,57,0.00,,,-99.99,0.000000,,2013-11-21 06:43:00,
2013-11-21 02:42:00,30.0,19.0,-100.00,North,351,4.0,7.0,62,0.00,,,-99.99,0.000000,,2013-11-21 07:42:00,
2013-11-21 03:42:00,30.0,19.0,-100.00,North,352,4.0,6.0,64,0.00,,,-99.99,0.000000,,2013-11-21 08:42:00,
2013-11-21 04:43:00,29.0,20.0,-100.00,North,353,4.0,6.0,68,0.00,,,-99.99,0.000000,,2013-11-21 09:43:00,
2013-11-21 05:42:00,29.0,21.0,-100.00,NNW,346,4.0,5.0,72,0.00,,,-99.99,0.000000,,2013-11-21 10:42:00,
2013-11-21 06:43:00,30.0,22.0,-100.00,North,356,2.0,4.0,72,0.00,,,-99.99,0.000000,,2013-11-21 11:43:00,
2013-11-21 07:42:00,29.0,23.0,-100.00,North,356,4.0,6.0,78,0.00,,,-99.99,1.000000,,2013-11-21 12:42:00,
2013-11-21 08:22:00,30.0,24.0,-100.00,North,359,4.0,-999.0,76,0.00,,,-99.99,,,2013-11-21 13:22:00,
2013-11-21 08:32:00,30.0,24.0,-100.00,North,359,4.0,-999.0,76,0.00,,,-99.99,,,2013-11-21 13:32:00,
2013-11-21 08:42:00,30.0,24.0,-100.00,North,359,4.0,-999.0,76,0.00,,,-99.99,,,2013-11-21 13:42:00,
2013-11-21 09:42:00,38.0,27.0,-100.00,NNE,12,1.0,4.0,64,0.00,,,-99.99,73.000000,,2013-11-21 14:42:00,
2013-11-21 10:43:00,44.0,29.0,-100.00,SE,133,2.0,5.0,55,0.00,,,-99.99,101.000000,,2013-11-21 15:43:00,
2013-11-21 11:42:00,45.0,30.0,-100.00,SSW,196,3.0,5.0,54,0.00,,,-99.99,118.000000,,2013-11-21 16:42:00,
2013-11-21 12:42:00,46.0,31.0,-100.00,South,191,4.0,7.0,56,0.00,,,-99.99,122.000000,,2013-11-21 17:42:00,
2013-11-21 13:42:00,46.0,31.0,-100.00,South,190,3.0,6.0,54,0.00,,,-99.99,112.000000,,2013-11-21 18:42:00,
2013-11-21 14:22:00,46.0,32.0,-100.00,WNW,299,4.0,-999.0,57,0.00,,,-99.99,,,2013-11-21 19:22:00,
2013-11-21 14:33:00,46.0,32.0,-100.00,WNW,299,4.0,-999.0,57,0.00,,,-99.99,,,2013-11-21 19:33:00,
2013-11-21 14:42:00,46.0,32.0,-100.00,WNW,299,4.0,-999.0,57,0.00,,,-99.99,,,2013-11-21 19:42:00,
2013-11-21 15:42:00,45.0,28.0,-100.00,West,267,2.0,7.0,50,0.00,,,-99.99,51.000000,,2013-11-21 20:42:00,
2013-11-21 16:43:00,45.0,25.0,-100.00,WSW,252,2.0,6.0,46,0.00,,,-99.99,8.000000,,2013-11-21 21:43:00,
2013-11-21 17:43:00,42.0,27.0,-100.00,West,262,0.0,2.0,55,0.00,,,-99.99,0.000000,,2013-11-21 22:43:00,
2013-11-21 18:42:00,41.0,29.0,-100.00,WSW,252,0.0,1.0,61,0.00,,,-99.99,0.000000,,2013-11-21 23:42:00,
2013-11-21 19:42:00,41.0,32.0,-100.00,West,265,0.0,2.0,71,0.00,,,-99.99,0.000000,,2013-11-22 00:42:00,
2013-11-21 20:22:00,41.0,34.0,-100.00,SW,219,0.0,-999.0,75,0.00,,,-99.99,,,2013-11-22 01:22:00,
2013-11-21 20:32:00,41.0,34.0,-100.00,SW,219,0.0,-999.0,75,0.00,,,-99.99,,,2013-11-22 01:32:00,
2013-11-21 20:42:00,41.0,34.0,-100.00,SW,219,0.0,-999.0,75,0.00,,,-99.99,,,2013-11-22 01:42:00,
2013-11-21 21:22:00,41.0,34.0,-100.00,NW,320,2.0,3.0,77,0.00,,,-99.99,0.000000,,2013-11-22 02:22:00,
2013-11-21 21:32:00,41.0,34.0,-100.00,NW,320,2.0,3.0,77,0.00,,,-99.99,0.000000,,2013-11-22 02:32:00,
2013-11-21 21:42:00,41.0,34.0,-100.00,NW,320,2.0,3.0,77,0.00,,,-99.99,0.000000,,2013-11-22 02:42:00,
2013-11-21 22:43:00,42.0,35.0,-100.00,NW,308,0.0,0.0,75,0.00,,,-99.99,0.000000,,2013-11-22 03:43:00,
2013-11-21 23:43:00,42.0,35.0,-100.00,SE,130,0.0,0.0,77,0.00,,,-99.99,0.000000,,2013-11-22 04:43:00,